Regional Weather Roundup
Issued by NWS

Home | Current Version | Previous Version | Text Only | Print | Product List | Glossary Off
Versions: 1 2 3 4 5 6 7 8 9 10 11 12 13 14 15 16 17 18 19 20 21 22 23 24 25 26 27 28 29 30 31 32 33 34 35 36 37 38 39 40 41 42 43 44 45 46 47 48 49 50

000
ASUS43 KMKX 260621
RWRWI

WISCONSIN REGIONAL WEATHER ROUNDUP
NATIONAL WEATHER SERVICE MILWAUKEE/SULLIVAN WI
100 AM CDT FRI MAY 26 2017

NOTE: "FAIR" INDICATES FEW OR NO CLOUDS BELOW 12,000 FEET WITH NO
SIGNIFICANT WEATHER AND/OR OBSTRUCTIONS TO VISIBILITY.

WIZ001-002-006>008-014>016-023>028-260700-
NORTHWEST WISCONSIN

CITY           SKY/WX    TMP DP  RH WIND       PRES   REMARKS
SUPERIOR ARPT  NOT AVBL
ASHLAND        PTCLDY    47  44  90 CALM      29.73S
6HR MIN TEMP:  43; 6HR MAX TEMP:  52;

HAYWARD        CLOUDY    57  51  80 CALM      29.73S
6HR MIN TEMP:  57; 6HR MAX TEMP:  70; 6HR PCP: TRACE;

SIREN          LGT RAIN  57  55  93 CALM      29.73S
6HR MIN TEMP:  57; 6HR MAX TEMP:  68;

CUMBERLAND     CLOUDY    55  54  94 S3        29.75R
RICE LAKE      LGT RAIN  58  55  88 CALM      29.76R
6HR MIN TEMP:  57; 6HR MAX TEMP:  69;

CHETEK         LGT RAIN  57  56  97 E6        29.75R
6HR MIN TEMP:  57; 6HR MAX TEMP:  68;

LADYSMITH      PTCLDY    57  54  91 CALM      29.76R
6HR MIN TEMP:  57; 6HR MAX TEMP:  69;

EAU CLAIRE     LGT RAIN  59  54  83 CALM      29.74R
6HR MIN TEMP:  57; 6HR MAX TEMP:  70; 6HR PCP: TRACE;

MENOMONIE      DRIZZLE   59  56  89 CALM      29.74R
6HR MIN TEMP:  59; 6HR MAX TEMP:  69; 6HR PCP:  0.01;

NEW RICHMOND   CLOUDY    59  54  82 S7        29.74S
6HR MIN TEMP:  58; 6HR MAX TEMP:  67; 6HR PCP:  0.05;

OSCEOLA        CLOUDY    60  55  82 S6        29.75S
6HR MIN TEMP:  59; 6HR MAX TEMP:  69;

$$

WIZ003>005-009-010-017-018-260700-
NORTH CENTRAL WISCONSIN

CITY           SKY/WX    TMP DP  RH WIND       PRES   REMARKS
MANITOWISH WTR CLOUDY    58  47  66 E7        29.77R
6HR MIN TEMP:  56; 6HR MAX TEMP:  69;

ARBOR VITAE    PTCLDY    59  49  69 SE6       29.77R
6HR MIN TEMP:  57; 6HR MAX TEMP:  72;

WOODRUFF       PTCLDY    59  49  69 SE6       29.77R
6HR MIN TEMP:  57; 6HR MAX TEMP:  72;

RHINELANDER    CLOUDY    58  51  78 SE7       29.78R
6HR MIN TEMP:  55; 6HR MAX TEMP:  69;

EAGLE RIVER    CLEAR     54  46  73 SE6       29.79R
6HR MIN TEMP:  54; 6HR MAX TEMP:  69;

LAND O LAKES   CLEAR     52  46  79 SE6       29.81R
6HR MIN TEMP:  52; 6HR MAX TEMP:  70;

PHILLIPS       CLOUDY    55  52  91 CALM      29.74S
6HR MIN TEMP:  53; 6HR MAX TEMP:  68;

TOMAHAWK       MOCLDY    56  51  82 SE3       29.77R
6HR MIN TEMP:  52; 6HR MAX TEMP:  67;

MEDFORD        PTCLDY    53  51  91 SE5       29.76R
6HR MIN TEMP:  53; 6HR MAX TEMP:  69;

MERRILL        CLOUDY    60  53  78 SE8       29.78R
6HR MIN TEMP:  55; 6HR MAX TEMP:  68;

$$

WIZ029-030-035-036-043>047-260700-
CENTRAL WISCONSIN

CITY           SKY/WX    TMP DP  RH WIND       PRES   REMARKS
WAUSAU         CLOUDY    59  51  75 SE5       29.76R
6HR MIN TEMP:  57; 6HR MAX TEMP:  67;

MOSINEE        CLOUDY    54  52  94 E5        29.78R
MARSHFIELD     PTCLDY    57  50  77 S5        29.76R
6HR MIN TEMP:  56; 6HR MAX TEMP:  70;

STEVENS POINT  PTCLDY    54  49  86 CALM      29.78R
6HR MIN TEMP:  52; 6HR MAX TEMP:  68;

WAUPACA        CLOUDY    59  54  82 E6        29.78S
6HR MIN TEMP:  57; 6HR MAX TEMP:  71;

WAUTOMA        MOCLDY    53  51  93 CALM      29.78R
6HR MIN TEMP:  53; 6HR MAX TEMP:  70;

WISC RAPIDS    CLOUDY    55  51  86 S3        29.78R
6HR MIN TEMP:  55; 6HR MAX TEMP:  72; 6HR PCP: TRACE;

CAMP DOUGLAS   CLOUDY    55  55  98 CALM      29.77R
6HR MIN TEMP:  52; 6HR MAX TEMP:  71;

$$

WIZ011>013-019>022-031-037>040-048>050-260700-
NORTHEAST WISCONSIN

CITY           SKY/WX    TMP DP  RH WIND       PRES   REMARKS
ANTIGO         CLOUDY    52  50  94 SE6       29.80S
6HR MIN TEMP:  52; 6HR MAX TEMP:  66;

SHAWANO        PTCLDY    55  52  89 CALM      29.79S
6HR MIN TEMP:  55; 6HR MAX TEMP:  69;

OCONTO         CLEAR     47  47  98 CALM      29.79S
6HR MIN TEMP:  47; 6HR MAX TEMP:  66;

STURGEON BAY   PTCLDY    50  49  96 N5        29.79S
6HR MIN TEMP:  49; 6HR MAX TEMP:  63;

GREEN BAY      CLEAR     53  52  96 CALM      29.79R
6HR MIN TEMP:  52; 6HR MAX TEMP:  68;

MANITOWOC      CLEAR     52  49  89 W3        29.79R
6HR MIN TEMP:  52; 6HR MAX TEMP:  61;

APPLETON       PTCLDY    55  48  76 E3        29.77S
CLINTONVILLE   CLOUDY    55  50  82 E3        29.78F
OSHKOSH        CLEAR     56  52  86 CALM      29.77S
6HR MIN TEMP:  55; 6HR MAX TEMP:  67;

$$

WIZ032>034-041-042-053>061-260700-
SOUTHWEST WISCONSIN

CITY           SKY/WX    TMP DP  RH WIND       PRES   REMARKS
LA CROSSE      LGT RAIN  61  59  93 SE3       29.77R
6HR MIN TEMP:  61; 6HR MAX TEMP:  71; 6HR PCP:  0.03;

SPARTA         DRIZZLE   54  54  99 CALM      29.78R
6HR MIN TEMP:  52; 6HR MAX TEMP:  70;

VIROQUA        CLOUDY    59  55  85 MISG      29.79R
6HR MIN TEMP:  59; 6HR MAX TEMP:  69;

BOSCOBEL       CLOUDY    57  55  93 CALM      29.78R
6HR MIN TEMP:  55; 6HR MAX TEMP:  72; 6HR PCP: TRACE;

PRAIRIE DU CHI CLOUDY    58  53  84 CALM      29.77R
6HR MIN TEMP:  58; 6HR MAX TEMP:  70;

PLATTEVILLE    CLOUDY    60  57  89 CALM      29.79R
6HR MIN TEMP:  59; 6HR MAX TEMP:  69;

$$

WIZ056-057-062-063-064-067-068-260700-
SOUTH CENTRAL WISCONSIN

CITY           SKY/WX    TMP DP  RH WIND       PRES   REMARKS
REEDSBURG      CLOUDY    57  56  94 CALM      29.77R
6HR MIN TEMP:  55; 6HR MAX TEMP:  68;

BARABOO/DELLS  CLOUDY    54  50  87 CALM      29.77R
6HR MIN TEMP:  54; 6HR MAX TEMP:  69;

LONE ROCK      LGT RAIN  58  55  90 CALM      29.78R
6HR MIN TEMP:  56; 6HR MAX TEMP:  71; 6HR PCP:  0.01;

MINERAL POINT  PTCLDY    61  55  82 CALM      29.79R
MADISON        PTCLDY    53  50  89 S3        29.77R
6HR MIN TEMP:  52; 6HR MAX TEMP:  69;

MIDDLETON      PTCLDY    53  53 100 CALM      29.78R
6HR MIN TEMP:  52; 6HR MAX TEMP:  70;

WATERTOWN      CLEAR     53  53 100 CALM      29.78R
6HR MIN TEMP:  52; 6HR MAX TEMP:  67;

MONROE         CLOUDY    59  52  77 SW6       29.78R
JANESVILLE     CLEAR     55  54  94 SE3       29.77S
$$

WIZ051-052-058>065-066-070>072-260700-
SOUTHEAST WISCONSIN

CITY           SKY/WX    TMP DP  RH WIND       PRES   REMARKS
MILWAUKEE      CLEAR     52  50  93 E3        29.78S
6HR MIN TEMP:  52; 6HR MAX TEMP:  58;

WAUKESHA       CLEAR     50  50 100 CALM      29.79S FOG
MILWAUKEE/TIMM   N/A     52  46  82 CALM      29.79S
RACINE         CLEAR     50  48  93 N3        29.79S
6HR MIN TEMP:  50; 6HR MAX TEMP:  57;

KENOSHA        CLEAR     51  48  89 CALM      29.77F
6HR MIN TEMP:  50; 6HR MAX TEMP:  62;

FOND DU LAC    PTCLDY    52  49  89 NE3       29.77F
6HR MIN TEMP:  52; 6HR MAX TEMP:  68;

SHEBOYGAN      CLEAR     50  50 100 N3        29.78S
6HR MIN TEMP:  49; 6HR MAX TEMP:  61;

WEST BEND      FOG       48  48 100 CALM      29.78S VSB 1/2
JUNEAU         CLOUDY    54  52  92 CALM      29.79R
6HR MIN TEMP:  54; 6HR MAX TEMP:  67;

$$

LSZ147-162-260700-
LAKE SUPERIOR

STATION/POSITION TIME  TEMP    WIND        PRES    WAVE
                       AIR SEA DIR/SP/G            HT/PER
                 (UTC) (F)     (DEG/KT/KT) (MB)    (FT/S)
W MID LAKE BUOY  0550   42 37  100/  8/ 10 1007.7R   1
DEVILS ISLAND    0600   43      10/  8/  8 1007.1F
PORT WING        0540   42      30/  7/  8 1007.1S
SAXON HARBOR     0540   45     210/  3/  4 1006.8R
$$

LMZ867-665-643>646-260700-
LAKE MICHIGAN

STATION/POSITION TIME  TEMP    WIND        PRES    WAVE
                       AIR SEA DIR/SP/G            HT/PER
                 (UTC) (F)     (DEG/KT/KT) (MB)    (FT/S)
CHAMBERS ISLAND  0540   50     240/  3/  4 1008.1S
N MID L



USA.gov is the U.S. government's official web portal to all federal, state and local government web resources and services.